Location: Key Biscayne
(25.6930°N, 80.1630°W)
Time: 00:56:37
(UTC-05:00)

Vanguard 3 - Visible Passes

Search period start: 25 November 2017 00:00
Search period end: 05 December 2017 00:00
Orbit: 510 x 3263 km, 33.3° (Epoch: 24 November)

Date Brightness Start Highest point End Pass type
(mag) Time Alt. Az. Time Alt. Az. Time Alt. Az.
25 Nov 10.9 02:37:01 24° S 02:37:01 24° S 02:44:13 10° SSE visible
25 Nov 8.4 18:17:26 10° W 18:23:58 63° N 18:33:15 17° ENE visible
25 Nov 9.1 20:29:21 10° WNW 20:37:50 60° NNW 20:37:50 60° NNW visible
25 Nov 10.9 22:41:46 10° WNW 22:42:23 13° WNW 22:42:23 13° WNW visible
26 Nov 11.2 01:27:05 18° SSE 01:27:05 18° SSE 01:30:22 10° SSE visible
26 Nov 11.1 03:31:38 16° SSW 03:31:38 16° SSW 03:38:02 10° S visible
26 Nov 8.8 19:15:50 10° WNW 19:23:26 56° N 19:28:03 38° ENE visible
26 Nov 9.9 21:27:47 10° WNW 21:32:37 36° WNW 21:32:37 36° WNW visible
27 Nov 11.1 02:21:36 19° S 02:21:36 19° S 02:26:52 10° SSE visible
27 Nov 8.4 18:02:31 10° W 18:08:32 56° N 18:18:17 13° ENE visible
27 Nov 8.9 20:14:12 10° WNW 20:22:51 62° N 20:22:51 62° N visible
27 Nov 10.8 22:26:16 10° WNW 22:27:26 15° WNW 22:27:26 15° WNW visible
28 Nov 11.4 01:11:31 13° SSE 01:11:31 13° SSE 01:13:09 10° SSE visible
28 Nov 11.3 03:16:03 12° SSW 03:16:03 12° SSW 03:19:12 10° SSW visible
28 Nov 8.7 19:00:51 10° WNW 19:07:54 54° N 19:13:07 33° ENE visible
28 Nov 9.6 21:12:28 10° WNW 21:17:42 42° WNW 21:17:42 42° WNW visible
29 Nov11.400:01:21SE00:01:21SE23:22:17WNWvisible
29 Nov 11.3 02:05:53 15° S 02:05:53 15° S 02:09:09 10° S visible
29 Nov 8.3 17:47:37 10° W 17:53:11 51° N 18:02:58 10° ENE visible
29 Nov 8.8 19:59:03 10° WNW 20:07:21 64° NNE 20:08:01 63° NNE visible
29 Nov 10.6 22:10:50 10° WNW 22:12:35 18° WNW 22:12:35 18° WNW visible
30 Nov 11.5 00:55:39 10° SSE 00:55:39 10° SSE 00:55:41 10° SSE visible
30 Nov 8.5 18:45:52 10° WNW 18:52:23 52° N 18:58:22 27° ENE visible
30 Nov 9.3 20:57:11 10° WNW 21:02:57 50° WNW 21:02:57 50° WNW visible
30 Nov11.323:45:20SE23:45:20SE23:07:32WNWvisible
01 Dec 11.5 01:49:51 12° S 01:49:51 12° S 01:50:59 10° S visible
01 Dec 8.6 19:43:56 10° WNW 19:51:36 66° NNE 19:53:21 59° ENE visible
01 Dec 10.3 21:55:30 10° WNW 21:57:57 22° WNW 21:57:57 22° WNW visible
02 Dec 8.4 18:30:53 10° WNW 18:36:56 51° NNE 18:43:49 21° ENE visible
02 Dec 8.9 20:41:57 10° WNW 20:48:25 62° WNW 20:48:25 62° WNW visible
03 Dec 8.3 19:28:48 10° WNW 19:35:55 70° NNE 19:38:59 50° E visible
03 Dec 10.1 21:40:15 10° WNW 21:43:34 27° W 21:43:34 27° W visible
04 Dec 8.1 18:15:52 10° WNW 18:21:29 51° NNE 18:29:36 15° E visible
04 Dec 8.6 20:26:45 10° WNW 20:34:13 77° WSW 20:34:13 77° WSW visible
